CW2057 Weather Reports


Display with metric or nautical units.
time (UTC)temp
F
wind
direction
speed
MPH
gust
MPH
rain 1hr
in
rain 24hr
in
rain mn
in
humidity
%
barometer
mb
20210120003028 33 221 0.0 0.0 0.00 0.00 0.00 54 1020.6
20210120001526 40 296 0.0 0.0 0.00 0.00 0.00 41 1020.7
20210120000029 41 296 0.0 0.0 0.00 0.00 0.00 39 1020.7
20210119234539 42 296 0.0 0.0 0.00 0.00 0.00 38 1020.7
20210119233059 43 296 0.0 0.0 0.00 0.00 0.00 36 1020.7
20210119231534 44 296 0.0 0.0 0.00 0.00 0.00 35 1020.7
20210119230040 44 296 0.0 3.0 0.00 0.00 0.00 34 1020.5
20210119224542 45 299 0.0 0.0 0.00 0.00 0.00 34 1020.5
20210119223046 45 288 0.0 0.0 0.00 0.00 0.00 32 1020.3
20210119221540 46 299 0.0 5.0 0.00 0.00 0.00 33 1020.2
20210119220039 47 290 0.0 4.0 0.00 0.00 0.00 31 1019.9
20210119214528 47 294 2.0 11.0 0.00 0.00 0.00 30 1019.5
20210119213040 48 290 2.0 16.0 0.00 0.00 0.00 29 1019.4
20210119211538 48 315 8.0 16.0 0.00 0.00 0.00 29 1019.3
20210119210038 49 283 0.0 15.0 0.00 0.00 0.00 29 1019.4
20210119204540 49 294 2.0 15.0 0.00 0.00 0.00 30 1019.2
20210119203032 49 293 4.0 19.0 0.00 0.00 0.00 29 1019.0
20210119201526 49 284 3.0 13.0 0.00 0.00 0.00 31 1018.9
20210119200047 49 355 0.0 0.0 0.00 0.00 0.00 30 1018.7
20210119194525 48 302 4.0 14.0 0.00 0.00 0.00 31 1018.5
20210119193034 49 286 1.0 18.0 0.00 0.00 0.00 30 1018.4
20210119191535 48 299 3.0 15.0 0.00 0.00 0.00 34 1018.2
20210119190053 48 315 0.0 13.0 0.00 0.00 0.00 34 1018.3
20210119184535 48 294 0.0 8.0 0.00 0.00 0.00 41 1018.1
20210119183042 47 298 2.0 17.0 0.00 0.00 0.00 43 1018.1
20210119181538 46 296 3.0 16.0 0.00 0.00 0.00 44 1018.2
20210119180045 46 321 5.0 18.0 0.00 0.00 0.00 46 1018.6
20210119174541 46 286 1.0 13.0 0.00 0.00 0.00 46 1018.7
20210119173028 45 299 1.0 6.0 0.00 0.00 0.00 49 1019.0
20210119171528 45 254 2.0 12.0 0.00 0.00 0.00 49 1019.3
20210119170037 45 290 1.0 11.0 0.00 0.00 0.00 50 1019.5
20210119164524 44 246 0.0 10.0 0.00 0.00 0.00 51 1019.6
20210119163037 42 215 0.0 3.0 0.00 0.00 0.00 53 1020.1
20210119161533 40 269 0.0 3.0 0.00 0.00 0.00 55 1020.3
20210119160031 40 236 0.0 5.0 0.00 0.00 0.00 55 1020.5
20210119154532 39 300 0.0 0.0 0.00 0.00 0.00 56 1020.7
20210119153038 38 237 0.0 0.0 0.00 0.00 0.00 58 1020.8
20210119151540 38 247 0.0 0.0 0.00 0.00 0.00 58 1021.0
20210119150038 37 257 0.0 0.0 0.00 0.00 0.00 60 1021.1
20210119144539 36 258 0.0 1.0 0.00 0.00 0.00 61 1021.1
20210119143028 36 259 0.0 0.0 0.00 0.00 0.00 63 1021.1
20210119141524 35 263 0.0 6.0 0.00 0.00 0.00 64 1021.0
20210119140033 34 250 0.0 0.0 0.00 0.00 0.00 67 1020.9
20210119134532 33 259 0.0 0.0 0.00 0.00 0.00 68 1020.8
20210119133033 32 252 0.0 0.0 0.00 0.00 0.00 69 1020.7
20210119131526 32 252 0.0 0.0 0.00 0.00 0.00 70 1020.5
20210119130032 32 252 0.0 0.0 0.00 0.00 0.00 69 1020.4
20210119124532 32 252 0.0 1.0 0.00 0.00 0.00 68 1020.4
20210119123042 32 252 0.0 0.0 0.00 0.00 0.00 67 1020.3
20210119121534 33 252 0.0 0.0 0.00 0.00 0.00 65 1020.2
20210119120118 34 252 0.0 0.0 0.00 0.00 0.00 64 1020.0
20210119114542 34 252 0.0 0.0 0.00 0.00 0.00 63 1019.9
20210119113038 34 252 0.0 0.0 0.00 0.00 0.00 63 1020.1
20210119111541 34 252 0.0 0.0 0.00 0.00 0.00 63 1020.1
20210119110043 34 252 0.0 0.0 0.00 0.00 0.00 63 1020.0
20210119104529 34 275 0.0 0.0 0.00 0.00 0.00 65 1020.1
20210119103038 34 256 0.0 0.0 0.00 0.00 0.00 66 1020.1
20210119101526 34 240 0.0 0.0 0.00 0.00 0.00 65 1019.9
20210119100034 34 267 0.0 2.0 0.00 0.00 0.00 65 1019.9
20210119094528 34 261 0.0 0.0 0.00 0.00 0.00 65 1019.8
20210119093031 34 257 0.0 0.0 0.00 0.00 0.00 66 1019.7
20210119091533 34 277 0.0 1.0 0.00 0.00 0.00 65 1019.4
20210119090102 34 271 0.0 0.0 0.00 0.00 0.00 65 1019.3
20210119084548 34 281 0.0 3.0 0.00 0.00 0.00 66 1019.3
20210119083042 34 276 0.0 0.0 0.00 0.00 0.00 66 1019.0
20210119081539 33 297 0.0 0.0 0.00 0.00 0.00 66 1018.8
20210119080041 33 284 0.0 8.0 0.00 0.00 0.00 68 1018.6
20210119074606 33 303 0.0 5.0 0.00 0.00 0.00 67 1018.4
20210119073036 33 297 0.0 3.0 0.00 0.00 0.00 66 1018.5
20210119071541 33 294 0.0 4.0 0.00 0.00 0.00 67 1018.4
20210119070052 33 300 0.0 3.0 0.00 0.00 0.00 65 1018.2
20210119064524 34 293 0.0 0.0 0.00 0.00 0.00 65 1018.3
20210119063042 34 293 0.0 2.0 0.00 0.00 0.00 64 1018.1
20210119061537 34 293 0.0 0.0 0.00 0.00 0.00 63 1017.9
20210119060052 35 291 0.0 0.0 0.00 0.00 0.00 63 1017.9
20210119054547 35 299 0.0 2.0 0.00 0.00 0.00 63 1017.8
20210119053055 34 300 0.0 0.0 0.00 0.00 0.00 64 1017.8
20210119051523 34 298 0.0 0.0 0.00 0.00 0.00 64 1017.7
20210119050036 34 291 0.0 0.0 0.00 0.00 0.00 63 1017.7
20210119044533 35 290 0.0 0.0 0.00 0.00 0.00 63 1017.7
20210119043032 35 280 0.0 0.0 0.00 0.00 0.00 63 1017.7
20210119041555 35 280 0.0 0.0 0.00 0.00 0.00 63 1017.7
20210119040042 35 273 0.0 0.0 0.00 0.00 0.00 62 1017.7
20210119034535 35 275 0.0 0.0 0.00 0.00 0.00 62 1017.7
20210119033037 35 273 0.0 1.0 0.00 0.00 0.00 62 1017.7
20210119031540 35 303 0.0 10.0 0.00 0.00 0.00 61 1017.5
20210119030038 35 281 0.0 0.0 0.00 0.00 0.00 61 1017.4
20210119024523 35 303 0.0 1.0 0.00 0.00 0.00 61 1017.4
20210119023047 35 289 0.0 6.0 0.00 0.00 0.00 61 1017.0
20210119021523 35 291 0.0 0.0 0.00 0.00 0.00 61 1016.9
20210119020028 36 300 0.0 2.0 0.00 0.00 0.00 60 1016.8
20210119014532 36 298 0.0 11.0 0.00 0.00 0.00 59 1016.6
20210119013041 36 275 0.0 5.0 0.00 0.00 0.00 60 1016.4
20210119011533 36 280 0.0 0.0 0.00 0.00 0.00 60 1016.1
20210119010037 36 301 0.0 0.0 0.00 0.00 0.00 60 1016.1
20210119004538 36 296 0.0 0.0 0.00 0.00 0.00 59 1015.8